Location: Newark
(41.9000°N, 12.4833°E)
Time: 23:12:13
(UTC+00:00)

NOAA 18 - Pass Details

Date: 20 May 2019
Orbit: 841 x 861 km, 99.1° (Epoch: 15 June)

Event Time Altitude Azimuth Distance (km) Brightness Sun altitude
Exits shadow 19:22:41 - 172° (S) 3,352 7.9 -9.3°
Reaches altitude 10° 19:24:54 10° 175° (S) 2,483 7.2 -9.7°
Maximum altitude 19:30:23 66° 258° (WSW) 936 5.6 -10.5°
Drops below altitude 10° 19:35:56 10° 340° (NNW) 2,507 8.7 -11.2°
Sets 19:38:20 0° 344° (NNW) 3,449 9.4 -11.6°
